Wetterdaten: Dienstag, 03.09.2013
Datum Zeit Temperatur Luftfeuchte Luftdruck Regen Wind Richtung Richtung Taupunkt Windchill Windben
03.09.2013 00:00 12,4 C 64 % 1028,2 hPa 0,0 l/m 1,1 km/h (1 Bft) O 90 5,8 C 12,6 C 0,0 km/h (0 Bft)
03.09.2013 00:05 12,2 C 66 % 1028,3 hPa 0,0 l/m 0,6 km/h (0 Bft) O 90 6,0 C 12,6 C 0,0 km/h (0 Bft)
03.09.2013 00:10 11,9 C 68 % 1028,3 hPa 0,0 l/m 0,2 km/h (0 Bft) W-NW 292 6,2 C 12,4 C 0,0 km/h (0 Bft)
03.09.2013 00:15 11,8 C 69 % 1028,3 hPa 0,0 l/m 0,0 km/h (0 Bft) N-NO 22 6,3 C 12,2 C 0,0 km/h (0 Bft)
03.09.2013 00:20 11,7 C 69 % 1028,3 hPa 0,0 l/m 0,0 km/h (0 Bft) N 360 6,2 C 12,0 C 0,0 km/h (0 Bft)
03.09.2013 00:25 11,5 C 71 % 1028,4 hPa 0,0 l/m 0,0 km/h (0 Bft) W-SW 247 6,4 C 11,9 C 0,0 km/h (0 Bft)
03.09.2013 00:30 11,5 C 73 % 1028,4 hPa 0,0 l/m 0,0 km/h (0 Bft) N 360 6,8 C 11,7 C 0,0 km/h (0 Bft)
03.09.2013 00:35 11,5 C 73 % 1028,4 hPa 0,0 l/m 0,3 km/h (0 Bft) O-NO 67 6,8 C 11,6 C 2,6 km/h (1 Bft)
03.09.2013 00:40 11,5 C 73 % 1028,4 hPa 0,0 l/m 0,5 km/h (0 Bft) O 90 6,8 C 11,5 C 0,0 km/h (0 Bft)
03.09.2013 00:45 11,6 C 74 % 1028,4 hPa 0,0 l/m 0,5 km/h (0 Bft) O-SO 112 7,1 C 11,6 C 0,0 km/h (0 Bft)
03.09.2013 00:50 11,7 C 73 % 1028,4 hPa 0,0 l/m 0,3 km/h (0 Bft) O-SO 112 7,0 C 11,6 C 3,7 km/h (1 Bft)
03.09.2013 00:55 11,8 C 73 % 1028,4 hPa 0,0 l/m 0,3 km/h (0 Bft) O 90 7,1 C 11,6 C 3,2 km/h (1 Bft)
03.09.2013 01:00 12,3 C 66 % 1028,4 hPa 0,0 l/m 1,6 km/h (1 Bft) O-SO 112 6,1 C 11,9 C 5,5 km/h (1 Bft)
03.09.2013 01:05 12,6 C 64 % 1028,4 hPa 0,0 l/m 2,7 km/h (1 Bft) NO 45 6,0 C 12,2 C 3,1 km/h (1 Bft)
03.09.2013 01:10 12,8 C 62 % 1028,4 hPa 0,0 l/m 2,6 km/h (1 Bft) O-NO 67 5,7 C 12,6 C 3,7 km/h (1 Bft)
03.09.2013 01:15 12,8 C 62 % 1028,4 hPa 0,0 l/m 1,8 km/h (1 Bft) O 90 5,7 C 12,7 C 0,0 km/h (0 Bft)
03.09.2013 01:20 13,0 C 59 % 1028,4 hPa 0,0 l/m 1,4 km/h (1 Bft) O-NO 67 5,2 C 12,9 C 3,9 km/h (1 Bft)
03.09.2013 01:25 12,8 C 63 % 1028,4 hPa 0,0 l/m 1,3 km/h (1 Bft) N 360 5,9 C 13,0 C 0,0 km/h (0 Bft)
03.09.2013 01:30 12,0 C 66 % 1028,4 hPa 0,0 l/m 1,1 km/h (1 Bft) W-NW 292 5,8 C 12,7 C 0,0 km/h (0 Bft)
03.09.2013 01:35 11,8 C 68 % 1028,4 hPa 0,0 l/m 0,8 km/h (0 Bft) NO 45 6,1 C 12,3 C 2,3 km/h (1 Bft)
03.09.2013 01:40 11,8 C 72 % 1028,4 hPa 0,0 l/m 0,5 km/h (0 Bft) N-NO 22 6,9 C 12,1 C 0,0 km/h (0 Bft)
03.09.2013 01:45 11,7 C 71 % 1028,4 hPa 0,0 l/m 0,3 km/h (0 Bft) W-NW 292 6,6 C 12,0 C 0,0 km/h (0 Bft)
03.09.2013 01:50 11,6 C 71 % 1028,4 hPa 0,0 l/m 0,2 km/h (0 Bft) N-NO 22 6,5 C 11,8 C 0,0 km/h (0 Bft)
03.09.2013 01:55 11,6 C 72 % 1028,4 hPa 0,0 l/m 0,0 km/h (0 Bft) N-NO 22 6,7 C 11,7 C 0,0 km/h (0 Bft)
03.09.2013 02:00 11,6 C 72 % 1028,4 hPa 0,0 l/m 0,0 km/h (0 Bft) W-NW 292 6,7 C 11,7 C 0,0 km/h (0 Bft)
03.09.2013 02:05 11,5 C 73 % 1028,6 hPa 0,0 l/m 0,0 km/h (0 Bft) N-NO 22 6,8 C 11,7 C 0,0 km/h (0 Bft)
03.09.2013 02:10 11,5 C 73 % 1028,6 hPa 0,0 l/m 0,2 km/h (0 Bft) N-NO 22 6,8 C 11,6 C 0,0 km/h (0 Bft)
03.09.2013 02:15 11,5 C 73 % 1028,6 hPa 0,0 l/m 0,2 km/h (0 Bft) N-NO 22 6,8 C 11,5 C 0,0 km/h (0 Bft)
03.09.2013 02:20 11,8 C 74 % 1028,6 hPa 0,0 l/m 0,3 km/h (0 Bft) O 90 7,3 C 11,5 C 2,4 km/h (1 Bft)
03.09.2013 02:25 12,2 C 71 % 1028,4 hPa 0,0 l/m 0,8 km/h (0 Bft) O 90 7,1 C 11,7 C 4,3 km/h (1 Bft)
03.09.2013 02:30 12,7 C 67 % 1028,4 hPa 0,0 l/m 2,1 km/h (1 Bft) O 90 6,7 C 12,2 C 6,0 km/h (2 Bft)
03.09.2013 02:35 12,6 C 67 % 1028,4 hPa 0,0 l/m 2,6 km/h (1 Bft) SO 135 6,6 C 12,5 C 4,3 km/h (1 Bft)
03.09.2013 02:40 12,3 C 69 % 1028,4 hPa 0,0 l/m 1,0 km/h (0 Bft) O-SO 112 6,8 C 12,7 C 0,0 km/h (0 Bft)
03.09.2013 02:45 12,0 C 71 % 1028,6 hPa 0,0 l/m 0,3 km/h (0 Bft) NO 45 6,9 C 12,6 C 0,0 km/h (0 Bft)
03.09.2013 02:50 12,0 C 72 % 1028,6 hPa 0,0 l/m 0,2 km/h (0 Bft) N 360 7,1 C 12,4 C 0,0 km/h (0 Bft)
03.09.2013 02:55 11,9 C 73 % 1028,6 hPa 0,0 l/m 0,3 km/h (0 Bft) NW 315 7,2 C 12,3 C 0,0 km/h (0 Bft)
03.09.2013 03:00 11,7 C 73 % 1028,6 hPa 0,0 l/m 0,0 km/h (0 Bft) W-NW 292 7,0 C 12,0 C 0,0 km/h (0 Bft)
03.09.2013 03:05 11,7 C 73 % 1028,7 hPa 0,0 l/m 0,0 km/h (0 Bft) NW 315 7,0 C 11,9 C 0,0 km/h (0 Bft)
03.09.2013 03:10 11,7 C 73 % 1028,7 hPa 0,0 l/m 0,0 km/h (0 Bft) NW 315 7,0 C 11,8 C 0,0 km/h (0 Bft)
03.09.2013 03:15 11,8 C 74 % 1028,7 hPa 0,0 l/m 0,0 km/h (0 Bft) NW 315 7,3 C 11,8 C 0,0 km/h (0 Bft)
03.09.2013 03:20 11,7 C 75 % 1028,7 hPa 0,0 l/m 0,0 km/h (0 Bft) W-NW 292 7,4 C 11,7 C 1,6 km/h (1 Bft)
03.09.2013 03:25 11,5 C 75 % 1028,5 hPa 0,0 l/m 0,2 km/h (0 Bft) W-NW 292 7,2 C 11,7 C 0,0 km/h (0 Bft)
03.09.2013 03:30 11,7 C 76 % 1028,5 hPa 0,0 l/m 0,5 km/h (0 Bft) O 90 7,6 C 11,5 C 2,1 km/h (1 Bft)
03.09.2013 03:35 11,9 C 75 % 1028,5 hPa 0,0 l/m 1,3 km/h (1 Bft) NO 45 7,6 C 11,7 C 2,9 km/h (1 Bft)
03.09.2013 03:40 11,9 C 74 % 1028,5 hPa 0,0 l/m 1,1 km/h (1 Bft) N-NO 22 7,4 C 11,8 C 0,0 km/h (0 Bft)
03.09.2013 03:45 11,6 C 75 % 1028,4 hPa 0,0 l/m 0,5 km/h (0 Bft) N-NO 22 7,3 C 11,8 C 0,0 km/h (0 Bft)
03.09.2013 03:50 11,8 C 75 % 1028,4 hPa 0,0 l/m 0,3 km/h (0 Bft) NO 45 7,5 C 11,7 C 2,3 km/h (1 Bft)
03.09.2013 03:55 12,0 C 73 % 1028,4 hPa 0,0 l/m 1,3 km/h (1 Bft) O-NO 67 7,3 C 11,8 C 4,2 km/h (1 Bft)
03.09.2013 04:00 12,1 C 73 % 1028,4 hPa 0,0 l/m 3,1 km/h (1 Bft) O-NO 67 7,4 C 12,0 C 4,8 km/h (1 Bft)
03.09.2013 04:05 12,1 C 73 % 1028,6 hPa 0,0 l/m 3,7 km/h (1 Bft) O 90 7,4 C 12,1 C 4,0 km/h (1 Bft)
03.09.2013 04:10 12,0 C 73 % 1028,6 hPa 0,0 l/m 3,5 km/h (1 Bft) NO 45 7,3 C 12,1 C 3,4 km/h (1 Bft)
03.09.2013 04:15 11,9 C 74 % 1028,6 hPa 0,0 l/m 2,9 km/h (1 Bft) O 90 7,4 C 12,1 C 3,9 km/h (1 Bft)
03.09.2013 04:20 11,9 C 73 % 1028,6 hPa 0,0 l/m 2,7 km/h (1 Bft) NO 45 7,2 C 12,1 C 2,9 km/h (1 Bft)
03.09.2013 04:25 11,9 C 74 % 1028,6 hPa 0,0 l/m 2,7 km/h (1 Bft) W 270 7,4 C 12,1 C 3,2 km/h (1 Bft)
03.09.2013 04:30 11,8 C 75 % 1028,6 hPa 0,0 l/m 1,6 km/h (1 Bft) O-NO 67 7,5 C 12,0 C 2,1 km/h (1 Bft)
03.09.2013 04:35 11,7 C 75 % 1028,6 hPa 0,0 l/m 0,6 km/h (0 Bft) NO 45 7,4 C 11,9 C 2,3 km/h (1 Bft)
03.09.2013 04:40 11,7 C 75 % 1028,6 hPa 0,0 l/m 0,2 km/h (0 Bft) O-NO 67 7,4 C 11,8 C 0,0 km/h (0 Bft)
03.09.2013 04:45 11,7 C 75 % 1028,6 hPa 0,0 l/m 0,2 km/h (0 Bft) O 90 7,4 C 11,9 C 0,0 km/h (0 Bft)
03.09.2013 04:50 11,7 C 76 % 1028,6 hPa 0,0 l/m 0,0 km/h (0 Bft) NO 45 7,6 C 11,8 C 0,0 km/h (0 Bft)
03.09.2013 04:55 11,6 C 76 % 1028,6 hPa 0,0 l/m 0,0 km/h (0 Bft) NO 45 7,5 C 11,7 C 0,0 km/h (0 Bft)
03.09.2013 05:00 11,5 C 76 % 1028,6 hPa 0,0 l/m 0,0 km/h (0 Bft) NO 45 7,4 C 11,7 C 0,0 km/h (0 Bft)
03.09.2013 05:05 11,5 C 76 % 1028,8 hPa 0,0 l/m 0,0 km/h (0 Bft) O 90 7,4 C 11,6 C 0,0 km/h (0 Bft)
03.09.2013 05:10 11,5 C 76 % 1028,8 hPa 0,0 l/m 0,0 km/h (0 Bft) NO 45 7,4 C 11,5 C 0,0 km/h (0 Bft)
03.09.2013 05:15 11,4 C 76 % 1028,8 hPa 0,0 l/m 0,2 km/h (0 Bft) O-SO 112 7,3 C 11,5 C 0,0 km/h (0 Bft)
03.09.2013 05:20 11,3 C 76 % 1028,8 hPa 0,0 l/m 0,2 km/h (0 Bft) O-SO 112 7,2 C 11,4 C 0,0 km/h (0 Bft)
03.09.2013 05:25 11,3 C 77 % 1028,6 hPa 0,0 l/m 0,8 km/h (0 Bft) SO 135 7,4 C 11,4 C 1,6 km/h (1 Bft)
03.09.2013 05:30 11,4 C 77 % 1028,6 hPa 0,0 l/m 0,8 km/h (0 Bft) N-NO 22 7,5 C 11,4 C 2,3 km/h (1 Bft)
03.09.2013 05:35 11,3 C 77 % 1028,6 hPa 0,0 l/m 0,5 km/h (0 Bft) N-NO 22 7,4 C 11,4 C 0,0 km/h (0 Bft)
03.09.2013 05:40 11,3 C 78 % 1028,6 hPa 0,0 l/m 0,6 km/h (0 Bft) S-SO 157 7,6 C 11,4 C 0,0 km/h (0 Bft)
03.09.2013 05:45 11,2 C 78 % 1028,6 hPa 0,0 l/m 0,5 km/h (0 Bft) S-SO 157 7,5 C 11,4 C 0,0 km/h (0 Bft)
03.09.2013 05:50 11,1 C 78 % 1028,6 hPa 0,0 l/m 0,2 km/h (0 Bft) O-NO 67 7,4 C 11,2 C 0,0 km/h (0 Bft)
03.09.2013 05:55 11,0 C 78 % 1028,6 hPa 0,0 l/m 0,2 km/h (0 Bft) O 90 7,3 C 11,1 C 0,0 km/h (0 Bft)
03.09.2013 06:00 11,0 C 78 % 1028,6 hPa 0,0 l/m 0,0 km/h (0 Bft) O-NO 67 7,3 C 11,1 C 0,0 km/h (0 Bft)
03.09.2013 06:05 10,9 C 78 % 1028,6 hPa 0,0 l/m 0,0 km/h (0 Bft) O-NO 67 7,2 C 10,9 C 0,0 km/h (0 Bft)
03.09.2013 06:10 10,8 C 78 % 1028,6 hPa 0,0 l/m 0,0 km/h (0 Bft) O-NO 67 7,1 C 10,9 C 0,0 km/h (0 Bft)
03.09.2013 06:14 10,8 C 78 % 1028,6 hPa 0,0 l/m 0,6 km/h (0 Bft) O 90 7,1 C 10,8 C 0,0 km/h (0 Bft)
03.09.2013 06:19 10,8 C 77 % 1029,1 hPa 0,0 l/m 0,3 km/h (0 Bft) O 90 6,9 C 10,8 C 0,0 km/h (0 Bft)
03.09.2013 06:21 10,8 C 77 % 1029,1 hPa 0,0 l/m 0,3 km/h (0 Bft) O 90 6,9 C 10,8 C 0,0 km/h (0 Bft)
03.09.2013 06:23 10,8 C 77 % 1029,1 hPa 0,0 l/m 0,3 km/h (0 Bft) O 90 6,9 C 10,8 C 0,0 km/h (0 Bft)
03.09.2013 06:25 10,7 C 77 % 1029,1 hPa 0,0 l/m 0,3 km/h (0 Bft) O-NO 67 6,8 C 10,7 C 2,1 km/h (1 Bft)
03.09.2013 06:30 10,8 C 77 % 1029,1 hPa 0,0 l/m 0,8 km/h (0 Bft) O-SO 112 6,9 C 10,7 C 0,0 km/h (0 Bft)
03.09.2013 06:35 10,7 C 77 % 1029,1 hPa 0,0 l/m 0,6 km/h (0 Bft) NO 45 6,8 C 10,7 C 0,0 km/h (0 Bft)
03.09.2013 06:40 10,7 C 78 % 1028,8 hPa 0,0 l/m 0,2 km/h (0 Bft) NO 45 7,0 C 10,7 C 0,0 km/h (0 Bft)
03.09.2013 06:45 10,7 C 78 % 1028,8 hPa 0,0 l/m 0,0 km/h (0 Bft) S 180 7,0 C 10,7 C 0,0 km/h (0 Bft)
03.09.2013 06:50 10,7 C 78 % 1028,8 hPa 0,0 l/m 0,0 km/h (0 Bft) S 180 7,0 C 10,7 C 0,0 km/h (0 Bft)
03.09.2013 06:55 10,8 C 78 % 1028,8 hPa 0,0 l/m 0,0 km/h (0 Bft) S 180 7,1 C 10,8 C 0,0 km/h (0 Bft)
03.09.2013 07:00 10,8 C 79 % 1028,3 hPa 0,0 l/m 0,3 km/h (0 Bft) S-SW 202 7,3 C 10,9 C 0,0 km/h (0 Bft)
03.09.2013 07:05 10,9 C 79 % 1028,3 hPa 0,0 l/m 0,3 km/h (0 Bft) S 180 7,4 C 11,1 C 0,0 km/h (0 Bft)
03.09.2013 07:10 11,1 C 78 % 1028,3 hPa 0,0 l/m 0,2 km/h (0 Bft) S-SO 157 7,4 C 11,3 C 0,0 km/h (0 Bft)
03.09.2013 07:15 11,1 C 78 % 1028,3 hPa 0,0 l/m 0,0 km/h (0 Bft) O-SO 112 7,4 C 11,4 C 0,0 km/h (0 Bft)
03.09.2013 07:20 11,1 C 77 % 1028,4 hPa 0,0 l/m 0,2 km/h (0 Bft) O-NO 67 7,2 C 11,4 C 0,0 km/h (0 Bft)
03.09.2013 07:25 11,1 C 77 % 1028,4 hPa 0,0 l/m 0,2 km/h (0 Bft) O-SO 112 7,2 C 11,4 C 0,0 km/h (0 Bft)
03.09.2013 07:30 11,2 C 77 % 1028,4 hPa 0,0 l/m 0,0 km/h (0 Bft) O 90 7,3 C 11,4 C 0,0 km/h (0 Bft)
03.09.2013 07:35 11,4 C 77 % 1028,4 hPa 0,0 l/m 0,0 km/h (0 Bft) O-NO 67 7,5 C 11,7 C 0,0 km/h (0 Bft)
03.09.2013 07:40 11,7 C 77 % 1028,3 hPa 0,0 l/m 0,0 km/h (0 Bft) O-NO 67 7,8 C 11,8 C 0,0 km/h (0 Bft)
03.09.2013 07:45 11,9 C 77 % 1028,3 hPa 0,0 l/m 0,0 km/h (0 Bft) O-SO 112 8,0 C 12,1 C 0,0 km/h (0 Bft)
03.09.2013 07:50 11,9 C 78 % 1028,3 hPa 0,0 l/m 0,0 km/h (0 Bft) NO 45 8,2 C 12,4 C 0,0 km/h (0 Bft)
03.09.2013 07:55 12,2 C 77 % 1028,3 hPa 0,0 l/m 0,0 km/h (0 Bft) NO 45 8,3 C 12,6 C 0,0 km/h (0 Bft)
03.09.2013 08:00 12,4 C 76 % 1028,4 hPa 0,0 l/m 0,0 km/h (0 Bft) O-NO 67 8,3 C 12,8 C 0,0 km/h (0 Bft)
03.09.2013 08:05 12,8 C 76 % 1028,4 hPa 0,0 l/m 0,0 km/h (0 Bft) O-NO 67 8,7 C 13,1 C 0,0 km/h (0 Bft)
03.09.2013 08:10 13,0 C 74 % 1028,4 hPa 0,0 l/m 0,0 km/h (0 Bft) O-NO 67 8,5 C 13,4 C 0,0 km/h (0 Bft)
03.09.2013 08:15 16,0 C 70 % 1028,4 hPa 0,0 l/m 0,0 km/h (0 Bft) O-NO 67 10,5 C 14,2 C 0,0 km/h (0 Bft)
03.09.2013 08:20 14,7 C 70 % 1028,4 hPa 0,0 l/m 0,0 km/h (0 Bft) O-NO 67 9,3 C 15,3 C 0,0 km/h (0 Bft)
03.09.2013 08:25 18,6 C 62 % 1028,4 hPa 0,0 l/m 0,2 km/h (0 Bft) NO 45 11,2 C 16,9 C 0,0 km/h (0 Bft)
03.09.2013 08:30 19,8 C 59 % 1028,4 hPa 0,0 l/m 0,2 km/h (0 Bft) O 90 11,6 C 18,6 C 0,0 km/h (0 Bft)
03.09.2013 08:35 20,0 C 57 % 1028,4 hPa 0,0 l/m 0,0 km/h (0 Bft) O-NO 67 11,2 C 20,4 C 0,0 km/h (0 Bft)
03.09.2013 08:40 20,3 C 56 % 1028,8 hPa 0,0 l/m 0,0 km/h (0 Bft) O 90 11,2 C 21,2 C 0,0 km/h (0 Bft)
03.09.2013 08:45 19,7 C 55 % 1028,8 hPa 0,0 l/m 0,8 km/h (0 Bft) O-NO 67 10,4 C 21,2 C 1,6 km/h (1 Bft)
03.09.2013 08:50 20,1 C 55 % 1028,8 hPa 0,0 l/m 1,1 km/h (1 Bft) O 90 10,8 C 21,2 C 0,0 km/h (0 Bft)
03.09.2013 08:55 20,5 C 55 % 1028,8 hPa 0,0 l/m 0,5 km/h (0 Bft) O 90 11,1 C 21,6 C 2,1 km/h (1 Bft)
03.09.2013 09:00 20,8 C 55 % 1028,6 hPa 0,0 l/m 0,5 km/h (0 Bft) O-NO 67 11,4 C 21,9 C 1,6 km/h (1 Bft)
03.09.2013 09:05 22,0 C 54 % 1028,6 hPa 0,0 l/m 0,5 km/h (0 Bft) S 180 12,3 C 22,6 C 0,0 km/h (0 Bft)
03.09.2013 09:10 21,3 C 51 % 1028,6 hPa 0,0 l/m 0,3 km/h (0 Bft) NO 45 10,7 C 23,2 C 0,0 km/h (0 Bft)
03.09.2013 09:15 21,4 C 50 % 1028,6 hPa 0,0 l/m 0,0 km/h (0 Bft) NO 45 10,5 C 23,9 C 0,0 km/h (0 Bft)
03.09.2013 09:20 21,5 C 49 % 1028,9 hPa 0,0 l/m 0,0 km/h (0 Bft) O-NO 67 10,3 C 24,3 C 1,6 km/h (1 Bft)
03.09.2013 09:25 21,7 C 48 % 1028,9 hPa 0,0 l/m 0,0 km/h (0 Bft) O-NO 67 10,2 C 24,7 C 1,9 km/h (1 Bft)
03.09.2013 09:30 21,7 C 47 % 1028,9 hPa 0,0 l/m 0,2 km/h (0 Bft) O-NO 67 9,9 C 24,9 C 1,6 km/h (1 Bft)
03.09.2013 09:35 21,8 C 44 % 1028,9 hPa 0,0 l/m 0,6 km/h (0 Bft) O-NO 67 9,0 C 24,7 C 1,6 km/h (1 Bft)
03.09.2013 09:40 22,0 C 44 % 1029,0 hPa 0,0 l/m 0,6 km/h (0 Bft) O 90 9,2 C 24,7 C 1,6 km/h (1 Bft)
03.09.2013 09:45 22,7 C 43 % 1029,0 hPa 0,0 l/m 0,6 km/h (0 Bft) NO 45 9,5 C 25,2 C 0,0 km/h (0 Bft)
03.09.2013 09:50 22,8 C 43 % 1029,0 hPa 0,0 l/m 0,3 km/h (0 Bft) O-NO 67 9,6 C 25,9 C 0,0 km/h (0 Bft)
03.09.2013 09:55 18,9 C 46 % 1029,0 hPa 0,0 l/m 0,3 km/h (0 Bft) NO 45 7,0 C 24,3 C 0,0 km/h (0 Bft)
03.09.2013 10:00 20,5 C 44 % 1029,2 hPa 0,0 l/m 0,8 km/h (0 Bft) O-NO 67 7,8 C 23,5 C 1,8 km/h (1 Bft)
03.09.2013 10:05 21,5 C 42 % 1029,2 hPa 0,0 l/m 1,1 km/h (1 Bft) NO 45 8,0 C 24,1 C 0,0 km/h (0 Bft)
03.09.2013 10:10 22,4 C 42 % 1029,2 hPa 0,0 l/m 0,8 km/h (0 Bft) O-NO 67 8,9 C 24,8 C 2,1 km/h (1 Bft)
03.09.2013 10:15 22,4 C 39 % 1029,2 hPa 0,0 l/m 0,2 km/h (0 Bft) NO 45 7,8 C 25,6 C 2,1 km/h (1 Bft)
03.09.2013 10:20 21,8 C 38 % 1029,4 hPa 0,0 l/m 0,3 km/h (0 Bft) NO 45 6,8 C 25,6 C 1,9 km/h (1 Bft)
03.09.2013 10:25 22,1 C 38 % 1029,4 hPa 0,0 l/m 0,6 km/h (0 Bft) O-SO 112 7,1 C 25,9 C 2,4 km/h (1 Bft)
03.09.2013 10:30 22,6 C 38 % 1029,4 hPa 0,0 l/m 1,1 km/h (1 Bft) O-NO 67 7,6 C 26,2 C 2,9 km/h (1 Bft)
03.09.2013 10:35 22,7 C 37 % 1029,4 hPa 0,0 l/m 1,4 km/h (1 Bft) O-SO 112 7,3 C 26,3 C 0,0 km/h (0 Bft)
03.09.2013 10:40 22,6 C 36 % 1029,5 hPa 0,0 l/m 1,0 km/h (0 Bft) NO 45 6,8 C 26,1 C 0,0 km/h (0 Bft)
03.09.2013 10:45 23,5 C 38 % 1029,5 hPa 0,0 l/m 0,3 km/h (0 Bft) S 180 8,4 C 26,0 C 0,0 km/h (0 Bft)
03.09.2013 10:50 24,2 C 35 % 1029,5 hPa 0,0 l/m 1,0 km/h (0 Bft) S-SW 202 7,8 C 25,6 C 3,1 km/h (1 Bft)
03.09.2013 10:55 24,0 C 34 % 1029,5 hPa 0,0 l/m 1,4 km/h (1 Bft) S 180 7,2 C 24,5 C 2,7 km/h (1 Bft)
03.09.2013 11:00 23,7 C 36 % 1029,8 hPa 0,0 l/m 1,9 km/h (1 Bft) S-SO 157 7,7 C 23,9 C 3,7 km/h (1 Bft)
03.09.2013 11:05 24,0 C 34 % 1029,8 hPa 0,0 l/m 1,8 km/h (1 Bft) W-NW 292 7,2 C 23,0 C 0,0 km/h (0 Bft)
03.09.2013 11:10 23,3 C 32 % 1029,8 hPa 0,0 l/m 1,4 km/h (1 Bft) O-SO 112 5,7 C 22,6 C 1,9 km/h (1 Bft)
03.09.2013 11:15 23,6 C 35 % 1029,8 hPa 0,0 l/m 1,8 km/h (1 Bft) W 270 7,2 C 22,1 C 3,2 km/h (1 Bft)
03.09.2013 11:20 24,3 C 34 % 1030,3 hPa 0,0 l/m 1,4 km/h (1 Bft) O 90 7,4 C 21,9 C 0,0 km/h (0 Bft)
03.09.2013 11:25 24,9 C 34 % 1030,3 hPa 0,0 l/m 2,1 km/h (1 Bft) S-SO 157 7,9 C 22,0 C 3,1 km/h (1 Bft)
03.09.2013 11:30 24,4 C 33 % 1030,3 hPa 0,0 l/m 2,3 km/h (1 Bft) NO 45 7,1 C 22,3 C 3,4 km/h (1 Bft)
03.09.2013 11:35 24,3 C 36 % 1030,3 hPa 0,0 l/m 1,1 km/h (1 Bft) S 180 8,3 C 23,3 C 3,7 km/h (1 Bft)
03.09.2013 11:40 25,6 C 35 % 1030,5 hPa 0,0 l/m 1,3 km/h (1 Bft) S 180 9,0 C 24,3 C 2,6 km/h (1 Bft)
03.09.2013 11:45 26,4 C 35 % 1030,5 hPa 0,0 l/m 1,8 km/h (1 Bft) S-SO 157 9,7 C 25,6 C 3,2 km/h (1 Bft)
03.09.2013 11:50 25,4 C 33 % 1030,5 hPa 0,0 l/m 1,6 km/h (1 Bft) S 180 7,9 C 26,4 C 0,0 km/h (0 Bft)
03.09.2013 11:55 25,1 C 32 % 1030,5 hPa 0,0 l/m 1,4 km/h (1 Bft) O-SO 112 7,2 C 27,2 C 2,3 km/h (1 Bft)
03.09.2013 12:00 24,6 C 33 % 1030,3 hPa 0,0 l/m 1,4 km/h (1 Bft) S-SO 157 7,2 C 27,3 C 1,6 km/h (1 Bft)
03.09.2013 12:05 26,0 C 33 % 1030,3 hPa 0,0 l/m 1,6 km/h (1 Bft) N 360 8,5 C 27,4 C 0,0 km/h (0 Bft)
03.09.2013 12:10 25,4 C 32 % 1030,3 hPa 0,0 l/m 1,1 km/h (1 Bft) O 90 7,5 C 28,0 C 2,1 km/h (1 Bft)
03.09.2013 12:15 24,9 C 31 % 1030,3 hPa 0,0 l/m 1,0 km/h (0 Bft) W-SW 247 6,6 C 28,4 C 2,6 km/h (1 Bft)
03.09.2013 12:20 25,7 C 33 % 1030,4 hPa 0,0 l/m 1,4 km/h (1 Bft) O 90 8,2 C 28,3 C 2,1 km/h (1 Bft)
03.09.2013 12:25 25,8 C 33 % 1030,4 hPa 0,0 l/m 1,4 km/h (1 Bft) SW 225 8,3 C 28,4 C 0,0 km/h (0 Bft)
03.09.2013 12:30 26,1 C 31 % 1030,4 hPa 0,0 l/m 2,1 km/h (1 Bft) S-SW 202 7,6 C 28,0 C 3,5 km/h (1 Bft)
03.09.2013 12:35 25,0 C 30 % 1030,4 hPa 0,0 l/m 1,9 km/h (1 Bft) N-NO 22 6,2 C 28,2 C 1,8 km/h (1 Bft)
03.09.2013 12:40 24,9 C 32 % 1030,1 hPa 0,0 l/m 1,4 km/h (1 Bft) S-SO 157 7,1 C 28,2 C 2,1 km/h (1 Bft)
03.09.2013 12:45 25,4 C 32 % 1030,1 hPa 0,0 l/m 2,1 km/h (1 Bft) S 180 7,5 C 28,3 C 6,1 km/h (2 Bft)
03.09.2013 12:50 25,2 C 32 % 1030,1 hPa 0,0 l/m 1,9 km/h (1 Bft) S-SO 157 7,3 C 28,1 C 2,1 km/h (1 Bft)
03.09.2013 12:55 25,2 C 32 % 1030,1 hPa 0,0 l/m 2,4 km/h (1 Bft) S-SW 202 7,3 C 28,2 C 2,1 km/h (1 Bft)
03.09.2013 13:00 25,4 C 32 % 1030,2 hPa 0,0 l/m 2,3 km/h (1 Bft) W-SW 247 7,5 C 27,9 C 2,6 km/h (1 Bft)
03.09.2013 13:05 24,9 C 32 % 1030,2 hPa 0,0 l/m 2,9 km/h (1 Bft) O-SO 112 7,1 C 27,8 C 3,4 km/h (1 Bft)
03.09.2013 13:10 24,5 C 32 % 1030,2 hPa 0,0 l/m 2,7 km/h (1 Bft) S-SO 157 6,7 C 27,9 C 3,4 km/h (1 Bft)
03.09.2013 13:15 24,8 C 34 % 1030,2 hPa 0,0 l/m 2,7 km/h (1 Bft) W 270 7,9 C 27,8 C 3,4 km/h (1 Bft)
03.09.2013 13:20 24,9 C 33 % 1030,2 hPa 0,0 l/m 3,1 km/h (1 Bft) S-SW 202 7,5 C 27,7 C 6,6 km/h (2 Bft)
03.09.2013 13:25 24,7 C 34 % 1030,2 hPa 0,0 l/m 3,5 km/h (1 Bft) S-SW 202 7,8 C 27,5 C 4,5 km/h (1 Bft)
03.09.2013 13:30 24,8 C 34 % 1030,2 hPa 0,0 l/m 3,9 km/h (1 Bft) SW 225 7,9 C 27,3 C 10,8 km/h (2 Bft)
03.09.2013 13:35 24,7 C 33 % 1030,2 hPa 0,0 l/m 3,5 km/h (1 Bft) W-SW 247 7,3 C 27,1 C 0,0 km/h (0 Bft)
03.09.2013 13:40 24,6 C 35 % 1030,2 hPa 0,0 l/m 2,9 km/h (1 Bft) S-SW 202 8,1 C 27,7 C 4,2 km/h (1 Bft)
03.09.2013 13:45 25,0 C 34 % 1030,2 hPa 0,0 l/m 1,6 km/h (1 Bft) O-NO 67 8,0 C 28,3 C 3,5 km/h (1 Bft)
03.09.2013 13:50 24,4 C 33 % 1030,2 hPa 0,0 l/m 2,3 km/h (1 Bft) N-NO 22 7,1 C 28,6 C 1,6 km/h (1 Bft)
03.09.2013 13:55 25,1 C 34 % 1030,2 hPa 0,0 l/m 2,6 km/h (1 Bft) W 270 8,1 C 28,5 C 3,7 km/h (1 Bft)
03.09.2013 14:00 25,1 C 35 % 1030,2 hPa 0,0 l/m 3,2 km/h (1 Bft) S-SO 157 8,6 C 28,1 C 5,8 km/h (2 Bft)
03.09.2013 14:05 25,4 C 35 % 1030,2 hPa 0,0 l/m 3,4 km/h (1 Bft) S-SW 202 8,8 C 28,1 C 6,1 km/h (2 Bft)
03.09.2013 14:10 24,8 C 35 % 1030,2 hPa 0,0 l/m 3,5 km/h (1 Bft) W-SW 247 8,3 C 27,8 C 6,1 km/h (2 Bft)
03.09.2013 14:15 24,6 C 36 % 1030,2 hPa 0,0 l/m 4,0 km/h (1 Bft) W 270 8,5 C 27,6 C 6,8 km/h (2 Bft)
03.09.2013 14:20 25,3 C 36 % 1030,1 hPa 0,0 l/m 4,3 km/h (1 Bft) SO 135 9,1 C 27,3 C 11,3 km/h (2 Bft)
03.09.2013 14:25 25,3 C 36 % 1030,1 hPa 0,0 l/m 3,5 km/h (1 Bft) S 180 9,1 C 27,7 C 3,9 km/h (1 Bft)
03.09.2013 14:30 25,6 C 36 % 1030,1 hPa 0,0 l/m 2,6 km/h (1 Bft) S-SO 157 9,4 C 27,9 C 4,0 km/h (1 Bft)
03.09.2013 14:35 25,6 C 36 % 1030,1 hPa 0,0 l/m 3,1 km/h (1 Bft) S-SW 202 9,4 C 28,1 C 5,3 km/h (1 Bft)
03.09.2013 14:40 25,7 C 35 % 1030,0 hPa 0,0 l/m 4,0 km/h (1 Bft) W 270 9,1 C 27,9 C 7,7 km/h (2 Bft)
03.09.2013 14:45 25,1 C 35 % 1030,0 hPa 0,0 l/m 5,1 km/h (1 Bft) W 270 8,6 C 27,3 C 3,2 km/h (1 Bft)
03.09.2013 14:50 25,1 C 35 % 1030,0 hPa 0,0 l/m 4,7 km/h (1 Bft) NW 315 8,6 C 27,2 C 2,6 km/h (1 Bft)
03.09.2013 14:55 25,2 C 36 % 1030,0 hPa 0,0 l/m 3,4 km/h (1 Bft) W 270 9,1 C 27,5 C 4,8 km/h (1 Bft)
03.09.2013 15:00 25,3 C 37 % 1030,0 hPa 0,0 l/m 4,0 km/h (1 Bft) SW 225 9,6 C 27,3 C 3,4 km/h (1 Bft)
03.09.2013 15:05 25,2 C 34 % 1030,0 hPa 0,0 l/m 4,7 km/h (1 Bft) S 180 8,2 C 27,4 C 4,0 km/h (1 Bft)
03.09.2013 15:10 25,1 C 36 % 1030,0 hPa 0,0 l/m 3,7 km/h (1 Bft) S-SW 202 9,0 C 27,5 C 0,0 km/h (0 Bft)
03.09.2013 15:15 25,4 C 35 % 1030,0 hPa 0,0 l/m 3,1 km/h (1 Bft) SW 225 8,8 C 28,3 C 5,0 km/h (1 Bft)
03.09.2013 15:20 25,4 C 34 % 1029,8 hPa 0,0 l/m 2,4 km/h (1 Bft) W-NW 292 8,4 C 28,7 C 0,0 km/h (0 Bft)
03.09.2013 15:25 25,2 C 36 % 1029,8 hPa 0,0 l/m 1,8 km/h (1 Bft) S 180 9,1 C 29,5 C 2,4 km/h (1 Bft)
03.09.2013 15:30 25,0 C 35 % 1029,8 hPa 0,0 l/m 1,4 km/h (1 Bft) O 90 8,5 C 29,8 C 1,9 km/h (1 Bft)
03.09.2013 15:35 24,7 C 36 % 1029,8 hPa 0,0 l/m 3,4 km/h (1 Bft) W-SW 247 8,6 C 29,5 C 1,9 km/h (1 Bft)
03.09.2013 15:40 24,9 C 38 % 1029,8 hPa 0,0 l/m 3,2 km/h (1 Bft) S 180 9,6 C 29,2 C 3,2 km/h (1 Bft)
03.09.2013 15:45 24,8 C 38 % 1029,8 hPa 0,0 l/m 3,2 km/h (1 Bft) NW 315 9,5 C 29,2 C 3,9 km/h (1 Bft)
03.09.2013 15:50 24,6 C 37 % 1029,8 hPa 0,0 l/m 4,3 km/h (1 Bft) S-SW 202 8,9 C 28,8 C 9,2 km/h (2 Bft)
03.09.2013 15:55 24,4 C 37 % 1029,8 hPa 0,0 l/m 4,5 km/h (1 Bft) W-NW 292 8,8 C 28,1 C 4,8 km/h (1 Bft)
03.09.2013 16:00 24,6 C 39 % 1029,7 hPa 0,0 l/m 3,4 km/h (1 Bft) N-NW 337 9,7 C 28,7 C 5,1 km/h (1 Bft)
03.09.2013 16:05 24,8 C 39 % 1029,7 hPa 0,0 l/m 2,9 km/h (1 Bft) W-SW 247 9,9 C 28,7 C 5,8 km/h (2 Bft)
03.09.2013 16:10 24,8 C 39 % 1029,7 hPa 0,0 l/m 3,9 km/h (1 Bft) W-NW 292 9,9 C 28,5 C 2,4 km/h (1 Bft)
03.09.2013 16:15 24,5 C 40 % 1029,7 hPa 0,0 l/m 2,9 km/h (1 Bft) W-NW 292 10,0 C 28,7 C 2,3 km/h (1 Bft)
03.09.2013 16:20 24,6 C 39 % 1029,6 hPa 0,0 l/m 2,3 km/h (1 Bft) W 270 9,7 C 29,0 C 3,1 km/h (1 Bft)
03.09.2013 16:25 24,6 C 40 % 1029,6 hPa 0,0 l/m 2,9 km/h (1 Bft) W-SW 247 10,1 C 29,0 C 3,9 km/h (1 Bft)
03.09.2013 16:30 24,6 C 41 % 1029,6 hPa 0,0 l/m 3,5 km/h (1 Bft) S 180 10,5 C 28,9 C 5,3 km/h (1 Bft)
03.09.2013 16:35 23,9 C 41 % 1029,6 hPa 0,0 l/m 4,2 km/h (1 Bft) W-SW 247 9,8 C 28,5 C 2,9 km/h (1 Bft)
03.09.2013 16:40 23,6 C 43 % 1029,4 hPa 0,0 l/m 4,0 km/h (1 Bft) S 180 10,3 C 28,5 C 3,9 km/h (1 Bft)
03.09.2013 16:45 23,2 C 44 % 1029,4 hPa 0,0 l/m 3,1 km/h (1 Bft) SW 225 10,3 C 28,7 C 2,1 km/h (1 Bft)
03.09.2013 16:50 23,0 C 45 % 1029,4 hPa 0,0 l/m 2,9 km/h (1 Bft) W 270 10,4 C 29,0 C 2,9 km/h (1 Bft)
03.09.2013 16:55 22,5 C 48 % 1029,4 hPa 0,0 l/m 2,1 km/h (1 Bft) S 180 10,9 C 29,5 C 4,5 km/h (1 Bft)
03.09.2013 17:00 22,5 C 48 % 1029,2 hPa 0,0 l/m 2,1 km/h (1 Bft) SW 225 10,9 C 29,5 C 3,4 km/h (1 Bft)
03.09.2013 17:05 22,2 C 48 % 1029,2 hPa 0,0 l/m 2,3 km/h (1 Bft) O-SO 112 10,7 C 29,5 C 2,1 km/h (1 Bft)
03.09.2013 17:10 22,1 C 49 % 1029,2 hPa 0,0 l/m 1,9 km/h (1 Bft) W 270 10,9 C 30,0 C 2,9 km/h (1 Bft)
03.09.2013 17:15 22,0 C 49 % 1029,2 hPa 0,0 l/m 2,6 km/h (1 Bft) W-SW 247 10,8 C 29,7 C 6,1 km/h (2 Bft)
03.09.2013 17:20 21,9 C 52 % 1029,1 hPa 0,0 l/m 3,2 km/h (1 Bft) N-NO 22 11,6 C 29,3 C 3,9 km/h (1 Bft)
03.09.2013 17:25 21,5 C 53 % 1029,1 hPa 0,0 l/m 2,4 km/h (1 Bft) W-SW 247 11,5 C 29,1 C 6,3 km/h (2 Bft)
03.09.2013 17:30 21,6 C 52 % 1029,1 hPa 0,0 l/m 3,1 km/h (1 Bft) S-SO 157 11,3 C 28,7 C 3,5 km/h (1 Bft)
03.09.2013 17:35 21,6 C 52 % 1029,1 hPa 0,0 l/m 3,9 km/h (1 Bft) W 270 11,3 C 28,4 C 3,9 km/h (1 Bft)
03.09.2013 17:40 21,6 C 53 % 1029,1 hPa 0,0 l/m 3,7 km/h (1 Bft) W-SW 247 11,6 C 28,3 C 4,2 km/h (1 Bft)
03.09.2013 17:45 21,5 C 53 % 1029,1 hPa 0,0 l/m 4,5 km/h (1 Bft) S-SW 202 11,5 C 28,0 C 5,1 km/h (1 Bft)
03.09.2013 17:50 21,5 C 54 % 1029,1 hPa 0,0 l/m 4,0 km/h (1 Bft) SW 225 11,8 C 28,1 C 5,1 km/h (1 Bft)
03.09.2013 17:55 21,3 C 53 % 1029,1 hPa 0,0 l/m 2,4 km/h (1 Bft) W 270 11,3 C 28,3 C 2,4 km/h (1 Bft)
03.09.2013 18:00 21,4 C 55 % 1028,6 hPa 0,0 l/m 2,4 km/h (1 Bft) W-SW 247 12,0 C 28,6 C 4,8 km/h (1 Bft)
03.09.2013 18:05 21,4 C 55 % 1028,6 hPa 0,0 l/m 2,4 km/h (1 Bft) W-NW 292 12,0 C 28,4 C 3,2 km/h (1 Bft)
03.09.2013 18:10 21,3 C 55 % 1028,6 hPa 0,0 l/m 3,1 km/h (1 Bft) W-SW 247 11,9 C 28,2 C 3,4 km/h (1 Bft)
03.09.2013 18:15 21,1 C 56 % 1028,6 hPa 0,0 l/m 3,1 km/h (1 Bft) O 90 12,0 C 27,9 C 3,9 km/h (1 Bft)
03.09.2013 18:20 21,2 C 55 % 1028,3 hPa 0,0 l/m 3,1 km/h (1 Bft) W-NW 292 11,8 C 27,7 C 5,8 km/h (2 Bft)
03.09.2013 18:25 21,2 C 55 % 1028,3 hPa 0,0 l/m 4,0 km/h (1 Bft) W-SW 247 11,8 C 27,3 C 4,8 km/h (1 Bft)
03.09.2013 18:30 21,2 C 56 % 1028,3 hPa 0,0 l/m 4,0 km/h (1 Bft) W 270 12,1 C 27,0 C 3,4 km/h (1 Bft)
03.09.2013 18:35 21,1 C 56 % 1028,3 hPa 0,0 l/m 3,7 km/h (1 Bft) W-SW 247 12,0 C 26,7 C 4,5 km/h (1 Bft)
03.09.2013 18:40 21,0 C 57 % 1028,2 hPa 0,0 l/m 3,2 km/h (1 Bft) N-NW 337 12,1 C 26,8 C 2,3 km/h (1 Bft)
03.09.2013 18:45 20,5 C 59 % 1028,2 hPa 0,0 l/m 2,3 km/h (1 Bft) W-NW 292 12,2 C 26,9 C 0,0 km/h (0 Bft)
03.09.2013 18:50 20,4 C 59 % 1028,2 hPa 0,0 l/m 1,4 km/h (1 Bft) N-NO 22 12,1 C 27,2 C 0,0 km/h (0 Bft)
03.09.2013 18:55 20,2 C 60 % 1028,2 hPa 0,0 l/m 0,8 km/h (0 Bft) NW 315 12,2 C 27,4 C 1,6 km/h (1 Bft)
03.09.2013 19:00 20,2 C 59 % 1028,2 hPa 0,0 l/m 1,1 km/h (1 Bft) W-SW 247 11,9 C 27,0 C 4,3 km/h (1 Bft)
03.09.2013 19:05 20,1 C 61 % 1028,2 hPa 0,0 l/m 1,8 km/h (1 Bft) W-NW 292 12,3 C 26,5 C 1,9 km/h (1 Bft)
03.09.2013 19:10 20,0 C 61 % 1028,2 hPa 0,0 l/m 1,8 km/h (1 Bft) N-NW 337 12,2 C 26,1 C 2,9 km/h (1 Bft)
03.09.2013 19:15 19,5 C 62 % 1028,2 hPa 0,0 l/m 1,3 km/h (1 Bft) N-NW 337 12,0 C 25,6 C 0,0 km/h (0 Bft)
03.09.2013 19:20 19,5 C 63 % 1028,3 hPa 0,0 l/m 1,1 km/h (1 Bft) NO 45 12,3 C 25,2 C 1,8 km/h (1 Bft)
03.09.2013 19:25 19,3 C 64 % 1028,3 hPa 0,0 l/m 1,3 km/h (1 Bft) NO 45 12,3 C 23,5 C 2,4 km/h (1 Bft)
03.09.2013 19:30 19,2 C 65 % 1028,3 hPa 0,0 l/m 2,1 km/h (1 Bft) O 90 12,5 C 22,3 C 3,2 km/h (1 Bft)
03.09.2013 19:35 18,7 C 66 % 1028,3 hPa 0,0 l/m 2,7 km/h (1 Bft) O-NO 67 12,2 C 21,0 C 2,6 km/h (1 Bft)
03.09.2013 19:40 18,5 C 66 % 1028,4 hPa 0,0 l/m 2,4 km/h (1 Bft) O-NO 67 12,0 C 20,1 C 2,7 km/h (1 Bft)
03.09.2013 19:45 18,3 C 67 % 1028,4 hPa 0,0 l/m 1,6 km/h (1 Bft) O 90 12,1 C 19,0 C 2,6 km/h (1 Bft)
03.09.2013 19:50 18,2 C 68 % 1028,4 hPa 0,0 l/m 1,8 km/h (1 Bft) NO 45 12,2 C 18,5 C 3,5 km/h (1 Bft)
03.09.2013 19:55 17,9 C 69 % 1028,4 hPa 0,0 l/m 2,3 km/h (1 Bft) NO 45 12,1 C 17,9 C 2,4 km/h (1 Bft)
03.09.2013 20:00 17,7 C 70 % 1028,5 hPa 0,0 l/m 2,4 km/h (1 Bft) NO 45 12,2 C 17,5 C 3,2 km/h (1 Bft)
03.09.2013 20:05 17,5 C 70 % 1028,5 hPa 0,0 l/m 1,9 km/h (1 Bft) O-NO 67 12,0 C 17,0 C 3,5 km/h (1 Bft)
03.09.2013 20:10 17,3 C 71 % 1028,5 hPa 0,0 l/m 2,3 km/h (1 Bft) O 90 12,0 C 16,7 C 2,4 km/h (1 Bft)
03.09.2013 20:15 16,5 C 73 % 1028,5 hPa 0,0 l/m 1,9 km/h (1 Bft) O 90 11,6 C 16,3 C 1,6 km/h (1 Bft)
03.09.2013 20:20 16,6 C 74 % 1028,6 hPa 0,0 l/m 1,6 km/h (1 Bft) O-NO 67 11,9 C 16,1 C 1,9 km/h (1 Bft)
03.09.2013 20:25 16,6 C 74 % 1028,6 hPa 0,0 l/m 1,8 km/h (1 Bft) O-NO 67 11,9 C 15,8 C 3,2 km/h (1 Bft)
03.09.2013 20:30 16,6 C 74 % 1028,6 hPa 0,0 l/m 2,3 km/h (1 Bft) O 90 11,9 C 15,7 C 2,4 km/h (1 Bft)
03.09.2013 20:35 16,2 C 75 % 1028,6 hPa 0,0 l/m 1,9 km/h (1 Bft) O 90 11,8 C 15,5 C 2,7 km/h (1 Bft)
03.09.2013 20:40 16,1 C 76 % 1028,6 hPa 0,0 l/m 1,8 km/h (1 Bft) O-NO 67 11,9 C 15,4 C 2,9 km/h (1 Bft)
03.09.2013 20:45 15,7 C 76 % 1028,6 hPa 0,0 l/m 1,4 km/h (1 Bft) O-SO 112 11,5 C 15,2 C 0,0 km/h (0 Bft)
03.09.2013 20:50 15,6 C 77 % 1028,6 hPa 0,0 l/m 0,8 km/h (0 Bft) NO 45 11,6 C 15,0 C 0,0 km/h (0 Bft)
03.09.2013 20:55 14,7 C 77 % 1028,6 hPa 0,0 l/m 0,2 km/h (0 Bft) N-NO 22 10,7 C 14,6 C 0,0 km/h (0 Bft)
03.09.2013 21:00 14,7 C 79 % 1028,8 hPa 0,0 l/m 0,3 km/h (0 Bft) NO 45 11,1 C 14,3 C 1,8 km/h (1 Bft)
03.09.2013 21:05 15,0 C 80 % 1028,8 hPa 0,0 l/m 1,3 km/h (1 Bft) NO 45 11,6 C 14,2 C 0,0 km/h (0 Bft)
03.09.2013 21:10 14,9 C 81 % 1028,8 hPa 0,0 l/m 1,8 km/h (1 Bft) O-NO 67 11,7 C 14,2 C 2,6 km/h (1 Bft)
03.09.2013 21:15 14,7 C 81 % 1028,8 hPa 0,0 l/m 2,4 km/h (1 Bft) O-NO 67 11,5 C 14,1 C 4,8 km/h (1 Bft)
03.09.2013 21:20 14,9 C 82 % 1028,8 hPa 0,0 l/m 3,4 km/h (1 Bft) N-NO 22 11,9 C 14,2 C 4,7 km/h (1 Bft)
03.09.2013 21:25 14,7 C 82 % 1028,8 hPa 0,0 l/m 3,7 km/h (1 Bft) O-SO 112 11,7 C 14,2 C 3,1 km/h (1 Bft)
03.09.2013 21:30 14,5 C 82 % 1028,8 hPa 0,0 l/m 3,2 km/h (1 Bft) O-NO 67 11,5 C 14,1 C 1,8 km/h (1 Bft)
03.09.2013 21:35 14,0 C 82 % 1028,8 hPa 0,0 l/m 1,6 km/h (1 Bft) O-NO 67 11,0 C 13,7 C 3,1 km/h (1 Bft)
03.09.2013 21:40 14,0 C 83 % 1028,8 hPa 0,0 l/m 1,1 km/h (1 Bft) O 90 11,2 C 13,6 C 1,6 km/h (1 Bft)
03.09.2013 21:45 13,8 C 83 % 1028,8 hPa 0,0 l/m 1,8 km/h (1 Bft) N-NO 22 11,0 C 13,4 C 0,0 km/h (0 Bft)
03.09.2013 21:50 13,5 C 83 % 1028,8 hPa 0,0 l/m 1,0 km/h (0 Bft) O-SO 112 10,7 C 13,3 C 0,0 km/h (0 Bft)
03.09.2013 21:55 13,3 C 83 % 1028,8 hPa 0,0 l/m 0,0 km/h (0 Bft) O-NO 67 10,5 C 13,1 C 0,0 km/h (0 Bft)
03.09.2013 22:00 13,5 C 83 % 1028,9 hPa 0,0 l/m 0,5 km/h (0 Bft) O 90 10,7 C 13,0 C 2,6 km/h (1 Bft)
03.09.2013 22:05 13,6 C 84 % 1028,9 hPa 0,0 l/m 1,3 km/h (1 Bft) O-NO 67 10,9 C 13,2 C 0,0 km/h (0 Bft)
03.09.2013 22:10 13,3 C 84 % 1028,9 hPa 0,0 l/m 1,0 km/h (0 Bft) O-SO 112 10,7 C 13,0 C 0,0 km/h (0 Bft)
03.09.2013 22:15 13,4 C 84 % 1028,9 hPa 0,0 l/m 0,3 km/h (0 Bft) NO 45 10,8 C 12,9 C 0,0 km/h (0 Bft)
03.09.2013 22:20 13,0 C 84 % 1028,9 hPa 0,0 l/m 0,3 km/h (0 Bft) N-NO 22 10,4 C 12,7 C 0,0 km/h (0 Bft)
03.09.2013 22:25 12,7 C 85 % 1028,9 hPa 0,0 l/m 0,0 km/h (0 Bft) O-SO 112 10,2 C 12,4 C 0,0 km/h (0 Bft)
03.09.2013 22:30 12,7 C 85 % 1028,9 hPa 0,0 l/m 0,0 km/h (0 Bft) O-SO 112 10,2 C 12,3 C 0,0 km/h (0 Bft)
03.09.2013 22:35 12,6 C 86 % 1028,9 hPa 0,0 l/m 0,0 km/h (0 Bft) O-SO 112 10,3 C 12,2 C 0,0 km/h (0 Bft)
03.09.2013 22:40 12,5 C 86 % 1029,0 hPa 0,0 l/m 0,0 km/h (0 Bft) O-SO 112 10,2 C 12,1 C 0,0 km/h (0 Bft)
03.09.2013 22:45 12,1 C 85 % 1029,0 hPa 0,0 l/m 0,0 km/h (0 Bft) O-SO 112 9,7 C 12,0 C 0,0 km/h (0 Bft)
03.09.2013 22:50 11,9 C 86 % 1029,0 hPa 0,0 l/m 0,0 km/h (0 Bft) O-SO 112 9,6 C 11,8 C 0,0 km/h (0 Bft)
03.09.2013 22:55 11,9 C 86 % 1029,0 hPa 0,0 l/m 0,0 km/h (0 Bft) O 90 9,6 C 11,6 C 0,0 km/h (0 Bft)
03.09.2013 23:00 11,9 C 86 % 1029,0 hPa 0,0 l/m 0,0 km/h (0 Bft) O 90 9,6 C 11,7 C 0,0 km/h (0 Bft)
03.09.2013 23:05 11,9 C 87 % 1029,0 hPa 0,0 l/m 0,0 km/h (0 Bft) O-SO 112 9,8 C 11,7 C 0,0 km/h (0 Bft)
_ Min-Zeit 06:50 12:35 19:15 - 23:05 - - 01:20 06:50 23:05
Minimum _ 10,7 C 30 % 1028,2 hPa - 0,0 km/h (0 Bft) - - 5,2 C 10,7 C 0,0 km/h (0 Bft)
_ Max-Zeit 11:45 23:05 11:55 23:05 14:45 - - 19:30 17:10 14:20
Maximum _ 26,4 C 87 % 1030,5 hPa 0,0 l/m 5,1 km/h
W (1 Bft)
- - 12,5 C 30,0 C 11,3 km/h
SO (2 Bft)
Durchschnitt _ 17,7 C 59 % 1029,0 hPa #0,0 l/m 1,5 km/h (1 Bft) O-NO - 8,9 C 19,4 C 1,9 km/h (1 Bft)